Location: Tierz
(42.1336°N, 0.3549°W)
Time: 15:08:31
(UTC+00:00)

NOSS 3-3 (A) - Pass Details

Date: 29 October 2020
Orbit: 826 x 1387 km, 63.4° (Epoch: 22 November)

Event Time Altitude Azimuth Distance (km) Brightness Sun altitude
Rises 18:01:30 0° 204° (SSW) 3,379 7.3 -12.2°
Reaches altitude 10° 18:03:52 10° 201° (SSW) 2,480 6.5 -12.6°
Maximum altitude 18:09:30 66° 120° (ESE) 996 3.9 -13.7°
Drops below altitude 10° 18:15:51 10° 40° (NE) 2,780 6.0 -14.8°
Enters shadow 18:16:11 - 40° (NE) 2,903 6.1 -14.9°
